Location: Bailen
(14.1842°N, 120.7958°E)
Time: 02:52:13
(UTC+00:00)

BlueWalker 3 - Visible Passes

Search period start: 09 March 2026 00:00
Search period end: 19 March 2026 00:00
Orbit: 451 x 458 km, 53.2° (Epoch: 8 March)

Date Brightness Start Highest point End Pass type
(mag) Time Alt. Az. Time Alt. Az. Time Alt. Az.
17 Mar 3.5 11:21:08 10° S 11:22:33 19° S 11:22:33 19° S visible
17 Mar 4.7 21:20:23 10° NNE 21:22:28 15° NE 21:24:32 10° E visible
18 Mar 3.2 10:45:27 10° S 10:48:04 19° ESE 10:49:17 16° E visible
18 Mar 5.2 12:22:53 10° W 12:23:04 11° W 12:23:04 11° W visible
